Regional Weather Roundup
Issued by NWS

Home | Current Version | Previous Version | Graphics & Text | Print | Product List | Glossary On
Versions: 1 2 3 4 5 6 7 8 9 10 11 12 13 14 15 16 17 18 19 20 21 22 23 24 25 26 27 28 29 30 31 32 33 34 35 36 37 38 39 40 41 42 43 44 45 46 47 48 49 50
000
ASUS45 KABQ 201310
RWRNM
NEW MEXICO REGIONAL WEATHER ROUNDUP
NATIONAL WEATHER SERVICE ALBUQUERQUE NM
700 AM MDT WED SEP 20 2017

NOTE: "FAIR" MEANS FEW OR NO CLOUDS BELOW 12,000 FEET AGL WITH NO
       SIGNIFICANT WEATHER OR OBSTRUCTIONS TO VISION.

      THIS PRODUCT IS RELEASED AS TWO VERSIONS.  ONE VERSION NEAR
      THE TOP OF THE HOUR CONTAINING PRELIMINARY DATA FROM ALBUQUERQUE
      AND OTHER STATIONS.  A FINAL VERSION WITH ADDITIONAL DATA IS
      ISSUED ABOUT 10 MINUTES AFTER THE HOUR.

NMZ501-503-504-510>518-201400-
NORTHWEST PLATEAU/NORTHCENTRAL MOUNTAINS

CITY           SKY/WX    TMP DP  RH WIND       PRES   REMARKS
FARMINGTON     FAIR      45  26  47 NE5       30.04R
LOS ALAMOS     FAIR      58  29  33 W8        30.15S
SANTA FE       FAIR      51  32  48 VRB5      30.10R
TAOS           FAIR      43  25  49 SE8       30.18R
ANGEL FIRE     FAIR      49  27  41 S6        30.20R

$$
NMZ402-403-502-505>509-201400-
WESTCENTRAL MOUNTAINS/SOUTHWEST MOUNTAINS

CITY           SKY/WX    TMP DP  RH WIND       PRES   REMARKS
GALLUP           N/A     40  26  57 NE3       30.13
GRANTS         FAIR      41  30  64 CALM      30.15R
SILVER CITY    FAIR      51  39  63 N8        30.11R

$$
NMZ407-409-411-412-201400-
SOUTHERN DESERTS

CITY           SKY/WX    TMP DP  RH WIND       PRES   REMARKS
DEMING         FAIR      56  47  71 W5        30.06R
LAS CRUCES     FAIR      62  45  53 W10       30.05R
HOLLOMAN AFB   FAIR      63  44  49 SE6       30.02R
ALAMOGORDO     FAIR      64  45  48 S8        30.02R
T OR C         FAIR      64  41  42 NW9       30.03R

$$
NMZ519>523-201400-
CENTRAL VALLEYS/CENTRAL HIGHLANDS

CITY           SKY/WX    TMP DP  RH WIND       PRES   REMARKS
ALBUQUERQUE    FAIR      57  37  47 SE8       30.07R
DOUBLE EAGLE   CLEAR     54  36  50 SW7       30.09R
MORIARTY ARPT  FAIR      59  37  43 NW6       30.11R
CLINES CORNERS FAIR      50  33  52 NW14      30.14S
BELEN          FAIR      52  33  48 CALM      30.07R
SOCORRO        FAIR      58  37  43 SW6       30.03R

$$
NMZ524>526-539-540-201400-
SOUTHCENTRAL MOUNTAINS

CITY           SKY/WX    TMP DP  RH WIND       PRES   REMARKS
RUIDOSO        FAIR      57  39  51 SW5       30.18R

$$
NMZ527>531-201400-
NORTHEAST HIGHLANDS/NORTHEAST PLAINS

CITY           SKY/WX    TMP DP  RH WIND       PRES   REMARKS
LAS VEGAS      FAIR      53  24  32 NE5       30.08R
RATON          FAIR      47  31  53 NE13      30.04R
CLAYTON        FAIR      49  27  42 N13       30.01R

$$
NMZ532>537-201400-
EASTCENTRAL PLAINS

CITY           SKY/WX    TMP DP  RH WIND       PRES   REMARKS
SANTA ROSA     FAIR      59  37  42 SW7       29.98R
TUCUMCARI      FAIR      54  37  52 N8        29.97R
CANNON AFB     FAIR      62  39  42 W6        29.97R
CLOVIS AIRPORT NOT AVBL

$$
NMZ028-029-538-201400-
SOUTHEAST PLAINS

CITY           SKY/WX    TMP DP  RH WIND       PRES   REMARKS
ROSWELL        FAIR      61  44  53 CALM      29.94R
ARTESIA        FAIR      66  45  45 SW12      29.94R
CARLSBAD       FAIR      70  49  47 W12       29.93R
HOBBS          CLEAR     61  57  88 SW7       29.95R


$$




USA.gov is the U.S. government's official web portal to all federal, state and local government web resources and services.